Weather History for Greenville, SC

Change the Weather History Date:

Friday, October 26, 2012

  Actual Average (KGSP) Record (KGSP)
Temperature  
Mean Temperature 69 °F 59 °F  
Max Temperature 78 °F 70 °F 87 °F (1940)
Min Temperature 60 °F 47 °F 28 °F (1930)
Degree Days  
Heating Degree Days 0 7  
Month to date heating degree days 113  
Since 1 July heating degree days 130  
Cooling Degree Days 4 1  
Month to date cooling degree days 45  
Year to date cooling degree days 1707  
Growing Degree Days 19 (Base 50)    
Moisture  
Dew Point 57 °F    
Average Humidity 73    
Maximum Humidity 88    
Minimum Humidity 44    
Precipitation  
Precipitation 0.00 in 0.10 in 3.66 in (1997)
Month to date precipitation 2.92  
Year to date precipitation 38.86  
Snow  
Snow 0.00 in 0.00 in T in (1926)
Month to date snowfall 0.0  
Since 1 July snowfall 0.0  
Since 1 September snowfall 0.0  
Snow Depth -    
Sea Level Pressure  
Sea Level Pressure 30.04 in    
Wind  
Wind Speed 6 mph (NE)    
Max Wind Speed 14 mph    
Max Gust Speed 18 mph    
Visibility 10 miles    
Events      
T = Trace of Precipitation, MM = Missing Value Source: NWS Daily Summary

Daily Weather History Graph

Daily Weather History Graph

Search for Another Location

Airport:

Trip Planner

Search our weather history database for the weather conditions in past years. The results will help you decide how hot, cold, wet, or windy it might be!

Date:

Astronomy

Oct. 26, 2012 Rise Set
Actual Time 7:45 AM EDT 6:41 PM EDT
Civil Twilight 7:19 AM EDT 7:07 PM EDT
Nautical Twilight 6:49 AM EDT 7:36 PM EDT
Astronomical Twilight 6:20 AM EDT 8:05 PM EDT
Moon 4:51 PM EDT (10/26) 4:46 AM EDT (10/26)
Length of Visible Light 11h 47m
Length of Day
10h 56m
Waxing Gibbous, 91% of the Moon is Illuminated
Oct 26
Waxing Gibbous
Oct 29
Full
Nov 6
Last Quarter
Nov 13
New
Nov 20
First Quarter

Hourly Weather History & Observations

Time (EDT) Temp. Dew Point Humidity Pressure Visibility Wind Dir Wind Speed Gust Speed Precip Events Conditions
12:15 AM 64.4 °F 57.2 °F 77% 30.09 in 10.0 mi ENE 5.8 mph - N/A   Mostly Cloudy
12:35 AM 64.4 °F 57.2 °F 77% 30.08 in 10.0 mi NE 4.6 mph - N/A   Mostly Cloudy
12:55 AM 64.4 °F 57.2 °F 77% 30.08 in 10.0 mi ENE 5.8 mph - N/A   Mostly Cloudy
1:15 AM 62.6 °F 57.2 °F 82% 30.08 in 10.0 mi Calm Calm - N/A   Scattered Clouds
1:55 AM 64.4 °F 57.2 °F 77% 30.07 in 10.0 mi NE 4.6 mph - N/A   Clear
2:35 AM 62.6 °F 57.2 °F 82% 30.07 in 10.0 mi Calm Calm - N/A   Clear
2:55 AM 62.6 °F 57.2 °F 82% 30.07 in 10.0 mi NE 4.6 mph - N/A   Clear
3:15 AM 62.6 °F 59.0 °F 88% 30.07 in 10.0 mi NE 4.6 mph - N/A   Clear
3:35 AM 62.6 °F 59.0 °F 88% 30.07 in 10.0 mi NE 4.6 mph - N/A   Clear
3:55 AM 62.6 °F 59.0 °F 88% 30.07 in 10.0 mi NNE 4.6 mph - N/A   Clear
4:15 AM 62.6 °F 59.0 °F 88% 30.07 in 10.0 mi NNE 4.6 mph - N/A   Clear
4:35 AM 62.6 °F 59.0 °F 88% 30.07 in 10.0 mi North 5.8 mph - N/A   Scattered Clouds
4:55 AM 62.6 °F 59.0 °F 88% 30.08 in 10.0 mi NNE 5.8 mph - N/A   Scattered Clouds
5:15 AM 62.6 °F 59.0 °F 88% 30.08 in 10.0 mi North 5.8 mph - N/A   Clear
5:35 AM 62.6 °F 59.0 °F 88% 30.08 in 10.0 mi NNE 5.8 mph - N/A   Mostly Cloudy
5:55 AM 62.6 °F 59.0 °F 88% 30.08 in 10.0 mi NNE 5.8 mph - N/A   Mostly Cloudy
6:15 AM 62.6 °F 59.0 °F 88% 30.08 in 10.0 mi North 4.6 mph - N/A   Scattered Clouds
6:35 AM 62.6 °F 59.0 °F 88% 30.08 in 10.0 mi NNE 5.8 mph - N/A   Scattered Clouds
6:50 AM 62.6 °F 59.0 °F 88% 30.08 in 10.0 mi NNE 5.8 mph - N/A   Scattered Clouds
7:55 AM 60.8 °F 57.2 °F 88% 30.08 in 10.0 mi NNE 4.6 mph - N/A   Clear
9:47 AM 66.2 °F 60.8 °F 83% 30.11 in 10.0 mi ENE 6.9 mph - N/A   Clear
10:47 AM 71.6 °F 60.8 °F 69% 30.11 in 10.0 mi ENE 9.2 mph - N/A   Clear
11:47 AM 73.4 °F 59.0 °F 61% 30.08 in 10.0 mi ENE 13.8 mph - N/A   Clear
12:47 PM 77.0 °F 59.0 °F 54% 30.07 in 10.0 mi ENE 11.5 mph - N/A   Scattered Clouds
1:47 PM 77.0 °F 57.2 °F 50% 30.03 in 10.0 mi ENE 10.4 mph - N/A   Scattered Clouds
2:47 PM 78.8 °F 55.4 °F 44% 30.00 in 10.0 mi East 12.7 mph - N/A   Scattered Clouds
3:47 PM 78.8 °F 55.4 °F 44% 29.97 in 10.0 mi East 11.5 mph 18.4 mph N/A   Partly Cloudy
4:47 PM 78.8 °F 55.4 °F 44% 29.96 in 10.0 mi East 9.2 mph - N/A   Clear
5:50 PM 77.0 °F 55.4 °F 47% 29.96 in 10.0 mi East 10.4 mph - N/A   Clear
6:47 PM 73.4 °F 55.4 °F 53% 29.96 in 10.0 mi East 9.2 mph - N/A   Clear
7:47 PM 71.6 °F 55.4 °F 57% 29.96 in 10.0 mi East 6.9 mph - N/A   Clear
8:47 PM 69.8 °F 55.4 °F 60% 29.97 in 10.0 mi ENE 8.1 mph - N/A   Clear
9:15 PM 68.0 °F 53.6 °F 60% 29.97 in 10.0 mi NE 5.8 mph - N/A   Clear
9:35 PM 66.2 °F 53.6 °F 64% 29.97 in 10.0 mi NE 9.2 mph - N/A   Clear
9:55 PM 64.4 °F 55.4 °F 73% 29.98 in 10.0 mi ENE 8.1 mph - N/A   Clear
10:15 PM 64.4 °F 55.4 °F 73% 29.98 in 1.5 mi ENE 8.1 mph - N/A   Haze
10:35 PM 64.4 °F 55.4 °F 73% 29.97 in 7.0 mi NE 9.2 mph - N/A   Clear
10:55 PM 64.4 °F 55.4 °F 73% 29.97 in 7.0 mi NE 9.2 mph - N/A   Clear
11:15 PM 64.4 °F 55.4 °F 73% 29.97 in 10.0 mi NE 6.9 mph - N/A   Clear
11:35 PM 62.6 °F 55.4 °F 77% 29.97 in 7.0 mi NE 10.4 mph - N/A   Clear
11:55 PM 62.6 °F 55.4 °F 77% 29.96 in 10.0 mi NE 8.1 mph - N/A   Clear